This demonstration page uses our WeatherBlox Daily Observations layout. Learn more.

Left ArrowRight Arrow

39.92423, -83.80882

Hourly Observations for February 6, 2016

Temp ( °F °C ) Dew Point ( °F °C ) Humidity (%) Winds ( mph kmh ) Pressure ( in mb ) Visibility ( mi km ) Precip ( " mm )
12:56 am 00:56 Mostly Clear 26 -3.3 25 -3.8 96 96 W 3 6 30.35 1028 10 16 N/A
1:56 am 01:56 Clear 25 -3.8 24 -4.4 96 96 S 3 6 30.34 1027 10 16 N/A
2:56 am 02:56 Clear 25 -3.8 24 -4.4 96 96 W 6 9 30.35 1028 8 13 N/A
3:56 am 03:56 Clear 25 -3.8 23 -5 91 91 N N/A 30.34 1028 10 16 N/A
4:56 am 04:56 Clear with Mist and Fog 23 -5 22 -5.5 96 96 WNW 6 9 30.36 1028 5 8 N/A
5:56 am 05:56 Clear 23 -5 22 -5.5 96 96 WNW 5 7 30.36 1028 7 11 N/A
6:56 am 06:56 Clear 23 -5 22 -5.5 96 96 N N/A 30.36 1028 7 11 N/A
7:56 am 07:56 Sunny with Mist and Fog 21 -6.1 20 -6.6 96 96 N N/A 30.37 1028 3 4 N/A
8:21 am 08:21 Sunny with Mist and Fog 21 -6 21 -6 100 100 S 3 6 30.39 1029 3 5 N/A
8:56 am 08:56 Sunny with Mist and Fog 25 -3.8 24 -4.4 96 96 SSW 5 7 30.37 1029 5 8 N/A
9:56 am 09:56 Sunny 29 -1.6 26 -3.3 88 88 SSW 6 9 30.37 1028 10 16 N/A
10:56 am 10:56 Sunny 32 undefined 25 -3.8 76 76 SW 7 11 30.37 1029 10 16 N/A
11:56 am 11:56 Sunny 35 1.6 24 -4.4 65 65 W 7 11 30.36 1028 10 16 N/A
12:56 pm 12:56 Sunny 39 3.8 19 -7.2 45 45 WSW 8 13 30.32 1027 10 16 N/A
1:56 pm 13:56 Sunny 40 4.4 17 -8.3 40 40 WSW 8 13 30.29 1026 10 16 N/A
2:56 pm 14:56 Sunny 42 5.5 19 -7.2 40 40 W 10 17 30.27 1025 10 16 N/A
3:56 pm 15:56 Sunny 42 5.5 20 -6.6 42 42 WSW 13 20 30.27 1025 10 16 N/A
4:56 pm 16:56 Sunny 42 5.5 23 -5 47 47 W 9 15 30.27 1025 10 16 N/A
5:56 pm 17:56 Sunny 37 2.7 24 -4.4 60 60 WSW 6 9 30.28 1025 10 16 N/A
6:56 pm 18:56 Clear 35 1.6 22 -5.5 60 60 N N/A 30.27 1025 10 16 N/A
7:56 pm 19:56 Clear 34 1.1 21 -6.1 59 59 SW 3 6 30.28 1025 10 16 N/A
8:56 pm 20:56 Clear 30 -1.1 23 -5 75 75 N N/A 30.27 1025 10 16 N/A
9:56 pm 21:56 Clear 29 -1.6 23 -5 78 78 SSE 3 6 30.26 1025 10 16 N/A
10:56 pm 22:56 Clear 31 -0.5 24 -4.4 75 75 S 5 7 30.24 1024 10 16 N/A
11:56 pm 23:56 Clear 33 0.5 24 -4.4 70 70 S 6 9 30.23 1024 10 16 N/A

Powered by AerisWeather